�������l�o���
Date,Time,MP-1(��Sv/h),MP-2(��Sv/h),MP-3(��Sv/h),MP-4(��Sv/h),MP-5(��Sv/h),MP-6(��Sv/h),MP-7(��Sv/h),MP-8(��Sv/h),����,����(m/s),���J
2016/09/27,00:00,1.102,1.828,1.329,2.011,1.392,0.592,1.041,0.967,-,CALM,�L
2016/09/27,00:10,1.105,1.827,1.328,2.013,1.392,0.592,1.042,0.968,��쓌,0.5,��
2016/09/27,00:20,1.102,1.829,1.328,2.017,1.390,0.593,1.044,0.967,-,CALM,��
2016/09/27,00:30,1.104,1.831,1.329,2.014,1.392,0.592,1.043,0.971,-,CALM,��
2016/09/27,00:40,1.103,1.829,1.329,2.015,1.393,0.591,1.042,0.969,��쐼,0.6,��
2016/09/27,00:50,1.102,1.831,1.329,2.012,1.391,0.593,1.043,0.969,-,CALM,��
2016/09/27,01:00,1.103,1.828,1.328,2.013,1.393,0.592,1.044,0.970,���쐼,0.8,��
2016/09/27,01:10,1.104,1.830,1.329,2.015,1.394,0.592,1.044,0.970,-,CALM,��
2016/09/27,01:20,1.104,1.830,1.331,2.015,1.394,0.592,1.045,0.968,���k��,1.0,��
2016/09/27,01:30,1.103,1.829,1.330,2.017,1.394,0.592,1.043,0.971,���k��,0.8,��
2016/09/27,01:40,1.102,1.832,1.329,2.017,1.393,0.592,1.044,0.971,�k,1.6,��
2016/09/27,01:50,1.103,1.827,1.329,2.012,1.393,0.590,1.044,0.968,�k,1.5,�L
2016/09/27,02:00,1.101,1.824,1.326,2.012,1.390,0.592,1.044,0.970,�k�k��,2.1,�L
2016/09/27,02:10,1.101,1.822,1.325,2.014,1.389,0.593,1.042,0.969,�k�k��,1.3,��
2016/09/27,02:20,1.100,1.821,1.324,2.012,1.387,0.592,1.043,0.967,�k��,2.0,��
2016/09/27,02:30,1.098,1.819,1.327,2.012,1.389,0.590,1.043,0.967,�k��,1.7,��
2016/09/27,02:40,1.099,1.825,1.325,2.010,1.388,0.591,1.041,0.967,�k�k��,2.2,��
2016/09/27,02:50,1.098,1.827,1.325,2.013,1.389,0.591,1.044,0.968,�k,2.7,��
2016/09/27,03:00,1.097,1.827,1.326,2.012,1.390,0.592,1.042,0.970,�k,1.8,��
2016/09/27,03:10,1.101,1.825,1.327,2.011,1.392,0.592,1.044,0.969,�k,1.7,��
2016/09/27,03:20,1.099,1.825,1.327,2.014,1.390,0.590,1.043,0.969,�k,1.5,��
2016/09/27,03:30,1.099,1.826,1.328,2.011,1.392,0.591,1.043,0.969,�k�k��,3.1,��
2016/09/27,03:40,1.101,1.827,1.327,2.011,1.392,0.590,1.043,0.968,�k�k��,5.8,��
2016/09/27,03:50,1.099,1.826,1.328,2.012,1.391,0.594,1.041,0.969,�k�k��,6.9,��
2016/09/27,04:00,1.098,1.828,1.328,2.013,1.391,0.592,1.043,0.970,�k�k��,7.4,��
2016/09/27,04:10,1.100,1.822,1.325,2.011,1.392,0.591,1.043,0.969,�k,6.6,��
2016/09/27,04:20,1.100,1.825,1.327,2.013,1.391,0.589,1.043,0.968,�k,6.0,��
2016/09/27,04:30,1.100,1.829,1.326,2.015,1.392,0.592,1.045,0.968,�k�k��,5.3,��
2016/09/27,04:40,1.099,1.827,1.327,2.012,1.393,0.588,1.044,0.968,�k,4.6,��
2016/09/27,04:50,1.100,1.825,1.328,2.011,1.392,0.591,1.043,0.970,�k,3.0,��
2016/09/27,05:00,1.097,1.825,1.328,2.013,1.392,0.589,1.043,0.969,�k,3.1,��
2016/09/27,05:10,1.100,1.830,1.327,2.013,1.395,0.590,1.043,0.969,�k,2.4,��
2016/09/27,05:20,1.099,1.827,1.325,2.014,1.392,0.589,1.044,0.968,�k,2.5,��
2016/09/27,05:30,1.099,1.831,1.329,2.013,1.391,0.591,1.043,0.969,�k,3.8,��
2016/09/27,05:40,1.100,1.826,1.328,2.013,1.394,0.589,1.046,0.971,�k�k��,3.4,��
2016/09/27,05:50,1.101,1.829,1.326,2.013,1.394,0.590,1.043,0.968,�k�k��,2.3,��
2016/09/27,06:00,1.103,1.831,1.329,2.012,1.393,0.591,1.044,0.968,�k,2.2,��
2016/09/27,06:10,1.100,1.828,1.328,2.011,1.394,0.590,1.043,0.970,�k,2.0,��
2016/09/27,06:20,1.102,1.829,1.328,2.011,1.393,0.590,1.045,0.970,�k�k��,2.4,��
2016/09/27,06:30,1.099,1.827,1.325,2.016,1.395,0.590,1.043,0.969,�k�k��,1.6,��
2016/09/27,06:40,1.101,1.829,1.328,2.016,1.394,0.590,1.046,0.969,�k��,1.2,��
2016/09/27,06:50,1.102,1.830,1.329,2.016,1.395,0.592,1.045,0.968,�k��,0.9,��
2016/09/27,07:00,1.102,1.832,1.329,2.013,1.397,0.591,1.045,0.968,�k�k��,0.9,��
2016/09/27,07:10,1.104,1.833,1.327,2.016,1.396,0.591,1.045,0.968,�k,1.2,��
2016/09/27,07:20,1.099,1.830,1.328,2.014,1.397,0.591,1.046,0.969,���k��,0.6,��
2016/09/27,07:30,1.100,1.829,1.331,2.016,1.394,0.590,1.046,0.968,�쓌,0.6,��
2016/09/27,07:40,1.099,1.833,1.328,2.016,1.392,0.588,1.044,0.968,��,0.8,��
2016/09/27,07:50,1.099,1.831,1.327,2.016,1.396,0.590,1.043,0.968,��,0.5,��
2016/09/27,08:00,1.099,1.830,1.328,2.016,1.394,0.588,1.045,0.969,�k��,0.5,��
2016/09/27,08:10,1.100,1.830,1.326,2.014,1.392,0.589,1.046,0.967,���k��,1.2,��
2016/09/27,08:20,1.099,1.827,1.329,2.016,1.396,0.588,1.044,0.969,���k��,0.9,��
2016/09/27,08:30,1.103,1.830,1.327,2.019,1.394,0.590,1.044,0.969,���쓌,1.4,��
2016/09/27,08:40,1.101,1.831,1.331,2.017,1.394,0.589,1.046,0.969,���쓌,2.4,��
2016/09/27,08:50,1.103,1.832,1.328,2.017,1.395,0.589,1.045,0.970,��,1.4,��
2016/09/27,09:00,1.103,1.829,1.328,2.019,1.395,0.590,1.044,0.967,�쓌,1.7,��
2016/09/27,09:10,1.103,1.831,1.328,2.018,1.399,0.590,1.046,0.969,�쓌,1.5,��
2016/09/27,09:20,1.101,1.839,1.330,2.018,1.395,0.589,1.047,0.968,��쓌,1.7,��
2016/09/27,09:30,1.103,1.836,1.329,2.019,1.400,0.589,1.047,0.970,��쓌,2.4,��
2016/09/27,09:40,1.103,1.833,1.332,2.022,1.400,0.591,1.048,0.969,��쓌,2.4,��
2016/09/27,09:50,1.103,1.833,1.332,2.021,1.401,0.589,1.047,0.970,��쓌,3.0,��
2016/09/27,10:00,1.103,1.839,1.334,2.025,1.402,0.591,1.045,0.970,�쓌,2.1,��
2016/09/27,10:10,1.105,1.837,1.329,2.019,1.402,0.592,1.047,0.970,��,1.8,��
2016/09/27,10:20,1.104,1.838,1.333,2.023,1.404,0.594,1.048,0.969,��쓌,1.1,��
2016/09/27,10:30,1.106,1.839,1.334,2.023,1.401,0.591,1.048,0.970,��쐼,0.6,��
2016/09/27,10:40,1.109,1.836,1.333,2.021,1.403,0.593,1.047,0.971,��쓌,0.6,��
2016/09/27,10:50,1.110,1.835,1.331,2.024,1.402,0.594,1.052,0.972,��,1.3,��
2016/09/27,11:00,1.107,1.841,1.335,2.023,1.405,0.591,1.051,0.971,�k,0.7,��
2016/09/27,11:10,1.110,1.841,1.337,2.026,1.409,0.592,1.050,0.971,�k,0.7,��
2016/09/27,11:20,1.110,1.843,1.338,2.026,1.408,0.595,1.053,0.972,�k�k��,0.9,��
2016/09/27,11:30,1.108,1.843,1.337,2.025,1.407,0.595,1.051,0.972,�k��,1.7,��
2016/09/27,11:40,1.110,1.844,1.339,2.026,1.409,0.594,1.053,0.971,���k��,2.2,��
2016/09/27,11:50,1.111,1.844,1.337,2.028,1.407,0.594,1.052,0.972,���k��,2.3,��
2016/09/27,12:00,1.110,1.847,1.340,2.025,1.409,0.594,1.052,0.972,�k�k��,3.4,��
2016/09/27,12:10,1.110,1.847,1.337,2.024,1.410,0.593,1.053,0.971,�k�k��,3.9,��
2016/09/27,12:20,1.114,1.848,1.337,2.028,1.411,0.592,1.054,0.972,�k�k��,3.8,��
2016/09/27,12:30,1.112,1.851,1.342,2.030,1.410,0.593,1.052,0.973,�k��,3.4,��
2016/09/27,12:40,1.112,1.846,1.339,2.030,1.411,0.594,1.052,0.973,�k��,3.9,��
2016/09/27,12:50,1.112,1.848,1.340,2.028,1.412,0.593,1.053,0.973,�k��,3.5,��
2016/09/27,13:00,1.113,1.851,1.342,2.033,1.414,0.594,1.051,0.974,�k�k��,4.4,��
2016/09/27,13:10,1.113,1.852,1.341,2.031,1.415,0.595,1.051,0.973,�k�k��,4.2,��
2016/09/27,13:20,1.113,1.851,1.341,2.031,1.412,0.593,1.052,0.972,�k�k��,3.1,��
2016/09/27,13:30,1.115,1.851,1.342,2.034,1.413,0.593,1.052,0.970,�k�k��,3.3,��
2016/09/27,13:40,1.112,1.850,1.342,2.032,1.413,0.595,1.056,0.973,�k�k��,2.9,��
2016/09/27,13:50,1.114,1.851,1.339,2.033,1.415,0.594,1.052,0.972,�k�k��,2.9,��
2016/09/27,14:00,1.114,1.851,1.341,2.032,1.415,0.594,1.053,0.973,�k��,2.9,��
2016/09/27,14:10,1.113,1.852,1.340,2.031,1.414,0.594,1.052,0.974,���k��,2.3,��
2016/09/27,14:20,1.115,1.854,1.341,2.029,1.412,0.594,1.054,0.971,�k��,2.2,��
2016/09/27,14:30,1.114,1.849,1.342,2.031,1.414,0.594,1.053,0.973,���k��,2.4,��
2016/09/27,14:40,1.117,1.853,1.343,2.032,1.413,0.594,1.053,0.974,�k��,1.9,��
2016/09/27,14:50,1.115,1.854,1.341,2.033,1.414,0.593,1.053,0.973,�k��,1.2,��
2016/09/27,15:00,1.116,1.855,1.340,2.034,1.415,0.594,1.052,0.974,�k��,1.5,��
2016/09/27,15:10,1.114,1.852,1.338,2.033,1.416,0.595,1.053,0.973,���k��,1.4,��
2016/09/27,15:20,1.115,1.850,1.338,2.033,1.415,0.596,1.053,0.973,�k��,1.0,��
2016/09/27,15:30,1.116,1.852,1.337,2.035,1.412,0.595,1.054,0.973,���k��,1.0,��
2016/09/27,15:40,1.115,1.850,1.338,2.036,1.416,0.597,1.052,0.975,�k��,1.0,��
2016/09/27,15:50,1.116,1.854,1.341,2.032,1.417,0.595,1.053,0.972,���쓌,1.3,��
2016/09/27,16:00,1.117,1.854,1.338,2.034,1.416,0.598,1.054,0.972,��,0.7,��
2016/09/27,16:10,1.116,1.855,1.342,2.032,1.416,0.597,1.053,0.973,-,CALM,��
2016/09/27,16:20,1.116,1.853,1.338,2.032,1.420,0.596,1.053,0.974,���쓌,0.9,��
2016/09/27,16:30,1.116,1.856,1.344,2.031,1.420,0.596,1.053,0.974,-,CALM,��
2016/09/27,16:40,1.118,1.857,1.344,2.034,1.418,0.597,1.053,0.973,�k,0.5,��
2016/09/27,16:50,1.117,1.857,1.342,2.035,1.417,0.597,1.052,0.975,-,CALM,��
2016/09/27,17:00,1.117,1.855,1.341,2.037,1.419,0.596,1.054,0.974,�k,1.5,��
2016/09/27,17:10,1.117,1.859,1.344,2.034,1.416,0.598,1.055,0.975,�k,1.6,��
2016/09/27,17:20,1.118,1.858,1.341,2.034,1.418,0.597,1.055,0.972,�k�k��,1.1,��
2016/09/27,17:30,1.116,1.858,1.341,2.037,1.417,0.596,1.057,0.974,-,CALM,��
2016/09/27,17:40,1.117,1.857,1.343,2.035,1.418,0.596,1.052,0.975,���k��,0.5,��
2016/09/27,17:50,1.118,1.858,1.343,2.032,1.419,0.596,1.052,0.974,-,CALM,��
2016/09/27,18:00,1.116,1.860,1.343,2.033,1.419,0.597,1.053,0.975,-,CALM,��
2016/09/27,18:10,1.116,1.858,1.342,2.036,1.415,0.597,1.053,0.975,���쓌,0.6,��
2016/09/27,18:20,1.118,1.856,1.343,2.037,1.420,0.597,1.055,0.976,�k�k��,0.7,��
2016/09/27,18:30,1.116,1.856,1.341,2.034,1.418,0.598,1.056,0.977,�쓌,0.6,��
2016/09/27,18:40,1.118,1.858,1.343,2.035,1.417,0.598,1.054,0.977,-,CALM,��
2016/09/27,18:50,1.117,1.856,1.342,2.032,1.418,0.597,1.054,0.976,��,0.5,��
2016/09/27,19:00,1.117,1.860,1.343,2.033,1.417,0.597,1.052,0.976,��,0.5,��
2016/09/27,19:10,1.118,1.861,1.341,2.034,1.419,0.599,1.055,0.975,-,CALM,��
2016/09/27,19:20,1.118,1.858,1.342,2.035,1.418,0.596,1.053,0.978,��,1.4,��
2016/09/27,19:30,1.119,1.860,1.341,2.033,1.419,0.596,1.056,0.975,�쓌,1.3,��
2016/09/27,19:40,1.117,1.857,1.343,2.035,1.419,0.600,1.054,0.976,���쐼,0.8,��
2016/09/27,19:50,1.117,1.858,1.343,2.036,1.419,0.598,1.056,0.976,��,1.0,��
2016/09/27,20:00,1.118,1.857,1.342,2.034,1.419,0.597,1.055,0.975,��,2.0,��
2016/09/27,20:10,1.118,1.860,1.342,2.034,1.417,0.596,1.054,0.974,��쐼,1.1,��
2016/09/27,20:20,1.119,1.861,1.342,2.038,1.417,0.599,1.054,0.976,��쓌,1.0,��
2016/09/27,20:30,1.118,1.857,1.342,2.036,1.417,0.597,1.054,0.977,�쐼,1.1,��
2016/09/27,20:40,1.118,1.858,1.342,2.032,1.419,0.596,1.055,0.975,-,CALM,��
2016/09/27,20:50,1.117,1.858,1.340,2.034,1.416,0.597,1.055,0.974,��,2.2,��
2016/09/27,21:00,1.119,1.857,1.343,2.035,1.418,0.597,1.055,0.975,��,1.3,��
2016/09/27,21:10,1.118,1.857,1.344,2.036,1.417,0.597,1.056,0.978,��쓌,1.4,��
2016/09/27,21:20,1.118,1.858,1.341,2.035,1.419,0.598,1.055,0.976,��,1.7,��
2016/09/27,21:30,1.119,1.856,1.342,2.036,1.421,0.599,1.058,0.976,��쐼,1.1,��
2016/09/27,21:40,1.118,1.863,1.343,2.036,1.417,0.598,1.055,0.977,��쐼,1.7,��
2016/09/27,21:50,1.118,1.861,1.343,2.039,1.419,0.596,1.055,0.977,��,2.9,��
2016/09/27,22:00,1.117,1.857,1.344,2.038,1.416,0.599,1.054,0.974,��쐼,2.6,��
2016/09/27,22:10,1.119,1.858,1.344,2.034,1.416,0.598,1.055,0.977,��쐼,2.4,��
2016/09/27,22:20,1.121,1.859,1.345,2.035,1.422,0.598,1.055,0.975,��,2.9,��
2016/09/27,22:30,1.118,1.861,1.343,2.037,1.418,0.597,1.055,0.976,��,3.9,��
2016/09/27,22:40,1.117,1.860,1.343,2.038,1.420,0.598,1.056,0.979,��,2.4,��
2016/09/27,22:50,1.121,1.858,1.343,2.037,1.420,0.598,1.054,0.977,��쐼,2.2,��
2016/09/27,23:00,1.119,1.860,1.342,2.037,1.417,0.599,1.056,0.978,��,2.3,��
2016/09/27,23:10,1.117,1.859,1.342,2.036,1.419,0.597,1.053,0.976,��,2.3,��
2016/09/27,23:20,1.118,1.862,1.343,2.034,1.419,0.598,1.053,0.975,��,1.9,��
2016/09/27,23:30,1.117,1.856,1.344,2.039,1.421,0.598,1.057,0.975,��,1.6,��
2016/09/27,23:40,1.121,1.858,1.344,2.037,1.421,0.597,1.055,0.976,��쓌,1.2,��
2016/09/27,23:50,1.118,1.861,1.342,2.036,1.420,0.597,1.054,0.976,��쓌,1.9,��
